Regional Weather Roundup
Issued by NWS Burlington, VT

Home | Current Version | Previous Version | Text Only | Print | Product List | Glossary On
Versions: 1 2 3 4 5 6 7 8 9 10 11 12 13 14 15 16 17 18 19 20 21 22 23 24 25 26 27 28 29 30 31 32 33 34 35 36 37 38 39 40 41 42 43 44 45 46 47 48 49 50
000
ASUS41 KBTV 020330
RWRBTV
VERMONT REGIONAL WEATHER ROUNDUP
NATIONAL WEATHER SERVICE BURLINGTON VT
1100 PM EDT MON JUN 01 2015

NOTE: "FAIR" INDICATES FEW OR NO CLOUDS BELOW 12,000 FEET WITH NO
SIGNIFICANT WEATHER AND/OR OBSTRUCTIONS TO VISIBILITY.

* THESE REPORTS ARE NOT UNDER NWS QUALITY CONTROL AND/OR DO NOT
  REPORT WEATHER SUCH AS PRECIPITATION AND FOG.

VTZ001>019-020400-
_____VERMONT_____


CITY           SKY/WX    TMP DP  RH WIND       PRES   REMARKS
BURLINGTON     CLOUDY    51  47  86 SE6       30.23F
MONTPELIER     CLOUDY    46  44  93 S6        30.28F
MORRISVILLE    CLOUDY    49  45  86 CALM      30.26F
ST. JOHNSBURY*   N/A     48  43  82 MISG      30.25S
LYNDONVILLE*   DRIZZLE   46  42  86 NE3       30.26F
MIDDLEBURY*    CLOUDY    50  44  79 S6        30.22S
RUTLAND*       CLOUDY    46  39  76 SE14G21   30.23S
SPRINGFIELD    CLOUDY    47  45  93 CALM      30.27F
HIGHGATE*      CLOUDY    48  47  94 CALM      30.24F
NEWPORT*       DRIZZLE   46  43  90 E5        30.27F
BENNINGTON     LGT RAIN  48  42  80 VRB7G20   30.21R
SUTTON*          N/A     43 N/A N/A MISG        N/A
GALLUP MILLS*    N/A     43 N/A N/A MISG        N/A
MT. MANSFIELD*   N/A     36 N/A N/A CALM        N/A

_____LAKE CHAMPLAIN_____


CITY           SKY/WX    TMP DP  RH WIND       PRES   REMARKS
BURTON ISLAND*   N/A     52  48  87 E9          N/A
COLCHESTER RF*   N/A     52  50  93 S6          N/A
DIAMOND ISL*     N/A     50  46  87 S1          N/A

$$

NYZ007-026>031-035-052-083-020400-
_____NORTHERN NEW YORK_____


CITY           SKY/WX    TMP DP  RH WIND       PRES   REMARKS
PLATTSBURGH    CLOUDY    51  49  92 SE9       30.22F
SARANAC LAKE   CLOUDY    47  46  97 E3        30.16F
MASSENA        CLOUDY    52  47  83 NE9       30.22S
OGDENSBURG*    CLOUDY    52  48  87 NE5       30.20S
POTSDAM*       CLOUDY   -24 -24 100 NE7       30.20F
STARK FALLS*     N/A     48 N/A N/A N2          N/A
WATERTOWN      CLOUDY    53  51  93 NE7       30.17S
FT DRUM        CLOUDY    52  52 100 NE7       30.17S
ALBANY         DRIZZLE   51  48  89 SW3       30.20F
GLENS FALLS    LGT RAIN  49  46  90 NE7       30.21S FOG

$$
NHZ002-005-011-020400-
_____NEW HAMPSHIRE_____


CITY           SKY/WX    TMP DP  RH WIND       PRES   REMARKS
LEBANON        CLOUDY    50  43  77 VRB5      30.26F
KEENE          CLOUDY    46  43  87 NE5       30.24F
MT WASHINGTON  FRZ DRZL  28  28 100 SE26        N/A  VSB 0   WCI  13
PLYMOUTH       CLOUDY    48  47  97 E3        30.28F
WHITEFIELD     CLOUDY    48  41  76 E7        30.26F

$$

_____REGIONAL QUEBEC LOCATIONS_____


CITY           SKY/WX    TMP DP  RH WIND       PRES   REMARKS
MONTREAL       CLOUDY    52  45  76 E14G22    30.25F
QUEBEC CITY    CLOUDY    55  32  41 E9        30.33S
SHERBROOKE     LGT RAIN  45 N/A N/A NE3       30.30F

_____REGIONAL ONTARIO LOCATIONS_____


CITY           SKY/WX    TMP DP  RH WIND       PRES   REMARKS
OTTAWA         CLOUDY    54  46  76 E9        30.23F

______KEY______
VSB  - VISIBILITY IN MILES
WCI  - WIND CHILL INDEX
HX   - HEAT INDEX
$$
NNNN



USA.gov is the U.S. government's official web portal to all federal, state and local government web resources and services.